| time (UTC) | temp F | wind direction | speed MPH | gust MPH | rain 1hr in | rain 24hr in | rain mn in | humidity % | barometer mb |
| 20260906090003 | 68 | 76 | 6.0 | 10.0 | 0.00 | 0.00 | 0.00 | 55 | 1024.4 |
| 20260906084600 | 68 | 84 | 1.0 | 6.0 | 0.00 | 0.00 | 0.00 | 59 | 1024.6 |
| 20260906083057 | 68 | 112 | 3.0 | 7.0 | 0.00 | 0.00 | 0.00 | 59 | 1024.6 |
| 20260906081553 | 67 | 130 | 3.0 | 7.0 | 0.00 | 0.00 | 0.00 | 63 | 1024.7 |
| 20260906080057 | 66 | 136 | 1.0 | 4.0 | 0.00 | 0.00 | 0.00 | 65 | 1024.7 |
| 20260906074548 | 65 | 169 | 3.0 | 5.0 | 0.00 | 0.00 | 0.00 | 67 | 1024.7 |
| 20260906073042 | 64 | 177 | 2.0 | 5.0 | 0.00 | 0.00 | 0.00 | 70 | 1024.6 |
| 20260906071537 | 60 | 227 | 1.0 | 3.0 | 0.00 | 0.00 | 0.00 | 79 | 1024.5 |
| 20260906070033 | 56 | 227 | 3.0 | 5.0 | 0.00 | 0.00 | 0.00 | 85 | 1024.3 |
| 20260906064534 | 55 | 229 | 2.0 | 5.0 | 0.00 | 0.00 | 0.00 | 87 | 1024.5 |
| 20260906063025 | 53 | 240 | 1.0 | 4.0 | 0.00 | 0.00 | 0.00 | 89 | 1024.5 |
| 20260906061520 | 52 | 240 | 1.0 | 4.0 | 0.00 | 0.00 | 0.00 | 90 | 1024.4 |
| 20260906060022 | 51 | 241 | 1.0 | 2.0 | 0.00 | 0.00 | 0.00 | 92 | 1024.5 |
| 20260906054511 | 51 | 241 | 0.0 | 0.0 | 0.00 | 0.00 | 0.00 | 93 | 1024.5 |
| 20260906053016 | 49 | 240 | 0.0 | 3.0 | 0.00 | 0.00 | 0.00 | 93 | 1024.7 |
| 20260906051504 | 49 | 241 | 1.0 | 3.0 | 0.00 | 0.00 | 0.00 | 92 | 1024.7 |
| 20260906050100 | 49 | 241 | 1.0 | 2.0 | 0.00 | 0.00 | 0.00 | 92 | 1024.6 |
| 20260906044558 | 49 | 241 | 0.0 | 2.0 | 0.00 | 0.00 | 0.00 | 92 | 1024.7 |
| 20260906043057 | 49 | 241 | 1.0 | 4.0 | 0.00 | 0.00 | 0.00 | 92 | 1024.7 |
| 20260906041556 | 49 | 242 | 2.0 | 3.0 | 0.00 | 0.00 | 0.00 | 91 | 1024.7 |
| 20260906040055 | 49 | 242 | 0.0 | 1.0 | 0.00 | 0.00 | 0.00 | 91 | 1024.5 |
| 20260906034554 | 50 | 241 | 1.0 | 2.0 | 0.00 | 0.00 | 0.00 | 91 | 1024.7 |
| 20260906033059 | 50 | 242 | 1.0 | 3.0 | 0.00 | 0.00 | 0.00 | 91 | 1024.6 |
| 20260906031552 | 50 | 241 | 1.0 | 3.0 | 0.00 | 0.00 | 0.00 | 90 | 1024.7 |
| 20260906030052 | 50 | 241 | 1.0 | 3.0 | 0.00 | 0.00 | 0.00 | 90 | 1024.6 |
| 20260906024548 | 51 | 242 | 0.0 | 2.0 | 0.00 | 0.01 | 0.00 | 90 | 1024.6 |
| 20260906023048 | 51 | 242 | 1.0 | 2.0 | 0.00 | 0.01 | 0.00 | 90 | 1024.5 |
| 20260906021548 | 51 | 242 | 0.0 | 0.0 | 0.00 | 0.01 | 0.00 | 89 | 1024.5 |
| 20260906020042 | 51 | 241 | 2.0 | 3.0 | 0.00 | 0.01 | 0.00 | 89 | 1024.6 |
| 20260906014546 | 52 | 242 | 2.0 | 5.0 | 0.00 | 0.01 | 0.00 | 89 | 1024.6 |
| 20260906013041 | 52 | 240 | 2.0 | 3.0 | 0.00 | 0.01 | 0.00 | 88 | 1024.5 |
| 20260906011539 | 52 | 240 | 1.0 | 3.0 | 0.00 | 0.01 | 0.00 | 88 | 1024.2 |
| 20260906010038 | 52 | 240 | 1.0 | 2.0 | 0.00 | 0.01 | 0.00 | 88 | 1024.3 |
| 20260906004535 | 53 | 240 | 0.0 | 2.0 | 0.00 | 0.01 | 0.00 | 87 | 1024.5 |
| 20260906003033 | 53 | 240 | 1.0 | 3.0 | 0.00 | 0.01 | 0.00 | 86 | 1024.4 |
| 20260906001531 | 54 | 240 | 1.0 | 3.0 | 0.00 | 0.01 | 0.00 | 86 | 1024.3 |
| 20260906000028 | 54 | 240 | 1.0 | 3.0 | 0.00 | 0.01 | 0.00 | 85 | 1024.5 |
| 20260905234525 | 55 | 240 | 1.0 | 4.0 | 0.00 | 0.01 | 0.00 | 84 | 1024.5 |
| 20260905233024 | 55 | 240 | 1.0 | 4.0 | 0.00 | 0.01 | 0.00 | 83 | 1024.5 |
| 20260905231522 | 56 | 240 | 0.0 | 3.0 | 0.00 | 0.01 | 0.00 | 83 | 1024.3 |
| 20260905230021 | 56 | 240 | 0.0 | 3.0 | 0.00 | 0.01 | 0.00 | 83 | 1024.2 |
| 20260905224521 | 56 | 236 | 2.0 | 4.0 | 0.00 | 0.01 | 0.00 | 83 | 1024.3 |
| 20260905223018 | 55 | 236 | 1.0 | 5.0 | 0.00 | 0.01 | 0.00 | 83 | 1024.2 |
| 20260905221530 | 55 | 227 | 2.0 | 5.0 | 0.00 | 0.01 | 0.00 | 82 | 1024.1 |
| 20260905220013 | 56 | 225 | 1.0 | 4.0 | 0.00 | 0.01 | 0.00 | 80 | 1023.9 |
| 20260905214611 | 56 | 225 | 1.0 | 3.0 | 0.00 | 0.05 | 0.01 | 79 | 1023.8 |
| 20260905213011 | 57 | 225 | 0.0 | 0.0 | 0.00 | 0.05 | 0.01 | 76 | 1023.8 |
| 20260905211509 | 58 | 225 | 0.0 | 0.0 | 0.00 | 0.05 | 0.01 | 76 | 1023.6 |
| 20260905210009 | 59 | 225 | 0.0 | 0.0 | 0.00 | 0.05 | 0.01 | 74 | 1023.5 |
| 20260905204506 | 59 | 225 | 0.0 | 2.0 | 0.00 | 0.05 | 0.01 | 74 | 1023.5 |
| 20260905203006 | 60 | 225 | 0.0 | 2.0 | 0.00 | 0.05 | 0.01 | 73 | 1023.3 |
| 20260905201504 | 60 | 225 | 0.0 | 1.0 | 0.00 | 0.05 | 0.01 | 72 | 1023.3 |
| 20260905200004 | 61 | 225 | 0.0 | 2.0 | 0.00 | 0.05 | 0.01 | 71 | 1023.1 |
| 20260905194501 | 61 | 225 | 0.0 | 3.0 | 0.00 | 0.05 | 0.01 | 70 | 1023.1 |
| 20260905193059 | 62 | 225 | 0.0 | 2.0 | 0.00 | 0.05 | 0.01 | 69 | 1022.9 |
| 20260905191559 | 63 | 219 | 0.0 | 1.0 | 0.00 | 0.05 | 0.01 | 68 | 1022.8 |
| 20260905190120 | 63 | 219 | 0.0 | 1.0 | 0.00 | 0.05 | 0.01 | 66 | 1022.6 |
| 20260905184613 | 64 | 219 | 0.0 | 3.0 | 0.00 | 0.06 | 0.01 | 64 | 1022.5 |
| 20260905183055 | 65 | 208 | 1.0 | 3.0 | 0.00 | 0.06 | 0.01 | 63 | 1022.4 |
| 20260905181553 | 66 | 208 | 1.0 | 3.0 | 0.00 | 0.06 | 0.01 | 62 | 1022.2 |
| 20260905180051 | 66 | 208 | 0.0 | 3.0 | 0.00 | 0.06 | 0.01 | 61 | 1022.0 |
| 20260905174556 | 67 | 173 | 1.0 | 5.0 | 0.00 | 0.23 | 0.01 | 61 | 1021.8 |
| 20260905173048 | 68 | 169 | 1.0 | 5.0 | 0.00 | 0.23 | 0.01 | 58 | 1021.6 |
| 20260905171547 | 70 | 219 | 2.0 | 5.0 | 0.00 | 0.23 | 0.01 | 57 | 1021.5 |
| 20260905170045 | 71 | 227 | 1.0 | 5.0 | 0.00 | 0.23 | 0.01 | 55 | 1021.4 |
| 20260905164543 | 72 | 261 | 1.0 | 8.0 | 0.00 | 0.23 | 0.01 | 53 | 1021.3 |
| 20260905163042 | 73 | 227 | 6.0 | 20.0 | 0.00 | 0.23 | 0.01 | 51 | 1021.1 |
| 20260905161541 | 73 | 242 | 2.0 | 12.0 | 0.00 | 0.23 | 0.01 | 52 | 1021.0 |
| 20260905160040 | 74 | 238 | 5.0 | 13.0 | 0.00 | 0.23 | 0.01 | 48 | 1020.9 |
| 20260905154539 | 75 | 257 | 7.0 | 15.0 | 0.00 | 0.23 | 0.01 | 47 | 1020.8 |
| 20260905153038 | 75 | 338 | 3.0 | 8.0 | 0.00 | 0.23 | 0.01 | 48 | 1020.6 |
| 20260905151537 | 75 | 215 | 2.0 | 17.0 | 0.00 | 0.23 | 0.01 | 48 | 1020.6 |
| 20260905150036 | 74 | 271 | 6.0 | 11.0 | 0.00 | 0.23 | 0.01 | 47 | 1020.5 |
| 20260905144541 | 74 | 230 | 5.0 | 13.0 | 0.00 | 0.23 | 0.01 | 47 | 1020.4 |
| 20260905143035 | 75 | 249 | 6.0 | 14.0 | 0.00 | 0.23 | 0.01 | 47 | 1020.4 |
| 20260905141541 | 76 | 236 | 6.0 | 14.0 | 0.00 | 0.23 | 0.01 | 47 | 1020.3 |
| 20260905140034 | 74 | 234 | 3.0 | 12.0 | 0.00 | 0.23 | 0.01 | 49 | 1020.4 |
| 20260905134534 | 76 | 244 | 8.0 | 17.0 | 0.00 | 0.23 | 0.01 | 47 | 1020.4 |
| 20260905133030 | 76 | 234 | 6.0 | 17.0 | 0.00 | 0.23 | 0.01 | 48 | 1020.3 |
| 20260905131543 | 74 | 206 | 5.0 | 18.0 | 0.00 | 0.23 | 0.01 | 50 | 1020.3 |
| 20260905130025 | 75 | 277 | 7.0 | 12.0 | 0.00 | 0.23 | 0.01 | 50 | 1020.3 |
| 20260905124536 | 74 | 227 | 7.0 | 14.0 | 0.00 | 0.23 | 0.01 | 52 | 1020.2 |
| 20260905123020 | 72 | 261 | 4.0 | 12.0 | 0.00 | 0.23 | 0.01 | 57 | 1020.1 |
| 20260905121524 | 71 | 221 | 7.0 | 14.0 | 0.00 | 0.23 | 0.01 | 54 | 1020.0 |
| 20260905120017 | 72 | 192 | 2.0 | 13.0 | 0.00 | 0.23 | 0.01 | 54 | 1019.8 |
| 20260905114534 | 73 | 242 | 6.0 | 13.0 | 0.00 | 0.23 | 0.01 | 54 | 1019.9 |
| 20260905113014 | 73 | 240 | 7.0 | 15.0 | 0.00 | 0.23 | 0.01 | 54 | 1019.8 |
| 20260905111516 | 72 | 236 | 4.0 | 14.0 | 0.00 | 0.23 | 0.01 | 55 | 1019.7 |
| 20260905110010 | 72 | 224 | 5.0 | 11.0 | 0.00 | 0.23 | 0.01 | 57 | 1019.7 |
| 20260905104506 | 71 | 251 | 4.0 | 14.0 | 0.00 | 0.23 | 0.01 | 59 | 1019.6 |
| 20260905103014 | 70 | 207 | 5.0 | 13.0 | 0.00 | 0.23 | 0.01 | 62 | 1019.6 |
| 20260905101629 | 69 | 221 | 3.0 | 18.0 | 0.00 | 0.23 | 0.01 | 66 | 1019.6 |
| 20260905100058 | 68 | 220 | 2.0 | 8.0 | 0.00 | 0.23 | 0.01 | 68 | 1019.6 |
| 20260905094555 | 68 | 271 | 8.0 | 15.0 | 0.00 | 0.23 | 0.01 | 66 | 1019.4 |
| 20260905093052 | 67 | 301 | 5.0 | 19.0 | 0.00 | 0.23 | 0.01 | 71 | 1019.4 |
| 20260905091549 | 65 | 250 | 4.0 | 10.0 | 0.00 | 0.23 | 0.01 | 74 | 1019.3 |